TimeEDT,TemperatureF,Dew PointF,Humidity,Sea Level PressureIn,VisibilityMPH,Wind Direction,Wind SpeedMPH,Gust SpeedMPH,PrecipitationIn,Events,Conditions,WindDirDegrees,DateUTC
12:53 AM,39.0,36.0,89,30.10,10.0,Calm,Calm,-,N/A,,Clear,0,2013-04-24 04:53:00
1:53 AM,37.0,34.0,89,30.07,10.0,Calm,Calm,-,N/A,,Clear,0,2013-04-24 05:53:00
2:53 AM,36.0,34.0,93,30.07,10.0,Calm,Calm,-,N/A,,Clear,0,2013-04-24 06:53:00
3:53 AM,34.0,33.1,96,30.05,10.0,Calm,Calm,-,N/A,,Clear,0,2013-04-24 07:53:00
4:53 AM,33.1,32.0,96,30.05,8.0,Calm,Calm,-,N/A,,Clear,0,2013-04-24 08:53:00
6:53 AM,33.1,30.9,92,30.07,7.0,Calm,Calm,-,N/A,,Clear,0,2013-04-24 10:53:00
7:53 AM,39.9,37.0,89,30.06,8.0,Calm,Calm,-,N/A,,Clear,0,2013-04-24 11:53:00
8:53 AM,46.9,39.9,77,30.03,10.0,Calm,Calm,-,N/A,,Clear,0,2013-04-24 12:53:00
9:53 AM,53.1,42.1,66,30.00,10.0,Variable,4.6,-,N/A,,Clear,0,2013-04-24 13:53:00
10:53 AM,55.9,42.1,60,29.97,10.0,Variable,5.8,-,N/A,,Clear,0,2013-04-24 14:53:00
11:53 AM,60.1,42.1,51,29.95,10.0,SW,8.1,-,N/A,,Clear,230,2013-04-24 15:53:00
12:53 PM,64.9,44.1,47,29.89,10.0,SSW,6.9,-,N/A,,Clear,210,2013-04-24 16:53:00
1:53 PM,70.0,46.0,42,29.86,10.0,SW,12.7,17.3,N/A,,Clear,230,2013-04-24 17:53:00
2:53 PM,71.1,45.0,39,29.82,10.0,SSW,8.1,-,N/A,,Partly Cloudy,200,2013-04-24 18:53:00
3:53 PM,73.0,46.0,38,29.79,10.0,SSE,11.5,19.6,N/A,,Clear,160,2013-04-24 19:53:00
4:53 PM,73.0,46.9,39,29.79,10.0,South,8.1,19.6,N/A,,Clear,170,2013-04-24 20:53:00
5:53 PM,72.0,46.9,41,29.77,10.0,SSE,10.4,17.3,N/A,,Clear,160,2013-04-24 21:53:00
6:53 PM,66.9,48.0,51,29.76,10.0,South,11.5,18.4,N/A,,Clear,170,2013-04-24 22:53:00
7:53 PM,63.0,48.0,58,29.79,10.0,SSE,8.1,-,N/A,,Clear,160,2013-04-24 23:53:00
8:53 PM,60.1,48.9,67,29.81,10.0,SSE,6.9,-,N/A,,Clear,160,2013-04-25 00:53:00
9:53 PM,57.9,48.9,72,29.82,9.0,South,9.2,17.3,N/A,,Clear,180,2013-04-25 01:53:00
10:53 PM,57.0,48.9,74,29.81,7.0,SSE,8.1,-,N/A,,Mostly Cloudy,160,2013-04-25 02:53:00
11:53 PM,55.9,48.9,77,29.80,6.0,SSE,8.1,-,N/A,,Haze,160,2013-04-25 03:53:00